Regional Weather Roundup
Issued by NWS

Home | Current Version | Previous Version | Graphics & Text | Print | Product List | Glossary Off
Versions: 1 2 3 4 5 6 7 8 9 10 11 12 13 14 15 16 17 18 19 20 21 22 23 24 25 26 27 28 29 30 31 32 33 34 35 36 37 38 39 40 41 42 43 44 45 46 47 48 49 50

000
ASUS43 KDMX 220401
RWRIA

WEATHER ROUNDUP FOR IOWA
NATIONAL WEATHER SERVICE DES MOINES IA
1100 PM CDT SAT OCT 21 2017

NOTE: "FAIR" INDICATES FEW OR NO CLOUDS BELOW 12,000 FEET WITH NO
SIGNIFICANT WEATHER AND/OR OBSTRUCTIONS TO VISIBILITY.

* - THESE STATIONS ARE NOT NWS STATIONS...THUS NOT UNDER NWS
QUALITY CONTROL.  THEY ALSO DO NOT REPORT WEATHER SUCH
AS PRECIPITATION OR FOG.

IAZ001>003-012>014-020>022-031>034-043>046-220500-
   NORTHWEST IOWA

CITY           SKY/WX    TMP DP  RH WIND       PRES   REMARKS
CHEROKEE *     CLOUDY    44  40  86 SW3       29.94R
DENISON *      CLOUDY    50  41  71 VRB3      29.98R
LE MARS *      PTCLDY    43  39  87 S5        29.94R
ORANGE CITY *  CLOUDY    43  39  87 W3        29.92S
SHELDON *      CLEAR     41  39  93 SW3       29.91R
SIOUX CITY     PTCLDY    41  39  93 W5        29.96R
SPENCER        CLOUDY    47  40  76 W9        29.92R
STORM LAKE *   CLOUDY    46  41  81 W6        29.94R
$$

IAZ055>058-069>071-079>083-090>094-220500-
   SOUTHWEST IOWA

CITY           SKY/WX    TMP DP  RH WIND       PRES   REMARKS
ATLANTIC *     CLOUDY    52  43  71 NW10      29.97R
AUDUBON *      CLOUDY    52  45  76 NW7       29.97R
CLARINDA *     CLOUDY    54  45  71 N10       30.00R
COUNCIL BLFS * CLOUDY    52  41  66 NW7       29.98R
CRESTON *      LGT RAIN  52  48  87 NW14      29.97R
HARLAN  *      CLOUDY    50  43  76 NW6       30.01R
LAMONI         RAIN      53  52  96 N9        29.94S
RED OAK *      CLOUDY    54  41  62 NW10G16   29.98R
SHENANDOAH *   CLOUDY    55  41  58 NW9       29.99R
$$

IAZ047>049-059>061-072>074-084-220500-
   CENTRAL IOWA

CITY           SKY/WX    TMP DP  RH WIND       PRES   REMARKS
AMES           LGT RAIN  54  51  90 W8        29.94R
ANKENY *       LGT RAIN  54  50  87 NW7G14    29.96R
BOONE *        CLOUDY    54  46  76 NW15      29.93R
CHARITON *     HVY RAIN  54  52  94 NW13G24   29.94R
DES MOINES     RAIN      54  51  90 NW8       29.95R
GRINNELL*      HVY RAIN  56  54  94 NW17      29.90R
KNOXVILLE *    RAIN      54  52  94 W20       29.91R
MARSHALLTOWN   RAIN      55  54  96 NW13      29.88R
NEWTON *       CLOUDY    55  54  94 W13G20    29.93R FOG
PELLA *        LGT RAIN  55  53  94 NW10G22   29.90S
PERRY *        CLOUDY    52  48  84 NW9       29.96R
$$

IAZ004>006-015-016-023>025-035-036-220500-
   NORTH CENTRAL IOWA

CITY           SKY/WX    TMP DP  RH WIND       PRES   REMARKS
ALGONA *       CLOUDY    52  45  76 NW9       29.92R
CLARION *      CLOUDY    52  50  93 NW14G20   29.91R
ESTHERVILLE    CLOUDY    47  42  83 NW3       29.90R
FORT DODGE *   CLOUDY    52  43  71 NW8       29.94R
MASON CITY     CLOUDY    53  48  83 NW14      29.90R
FOREST CITY *    N/A     52  46  82 NW10G18   29.90R
WEBSTER CITY * CLOUDY    52  46  82 NW16      29.90R
IOWA FALLS *   LGT RAIN  55  52  87 W12       29.91R
$$

IAZ007>011-017>019-026>030-037>042-050>054-066-220500-
   NORTHEAST IOWA

CITY           SKY/WX    TMP DP  RH WIND       PRES   REMARKS
CEDAR RAPIDS   LGT RAIN  67  63  87 SW20G32   29.85R
CHARLES CITY * LGT RAIN  55  55 100 W9        29.87R
CLINTON *      CLOUDY    69  60  73 S12       29.91R
DECORAH *      LGT RAIN  61  59  94 S10G18    29.82R
DUBUQUE        CLOUDY    68  60  75 S16       29.87S
MONTICELLO *   CLOUDY    70  63  78 S13       29.85S
OELWEIN *      LGT RAIN  59  59 100 SW14      29.85S
WATERLOO       TSTM      56  55  97 NW13      29.84R FOG
$$

IAZ064-065-067-068-078-220500-
   EAST CENTRAL IOWA

CITY           SKY/WX    TMP DP  RH WIND       PRES   REMARKS
DAVENPORT      PTCLDY    71  59  65 S16G32    29.91R
IOWA CITY      RAIN      67  59  75 SW20G40   29.89R
MUSCATINE *    CLOUDY    72  61  68 S13G18    29.86F
QUAD CITIES    CLEAR     72  58  61 S16G24    29.89R
$$

IAZ062-063-075>077-085>089-095>099-220500-
   SOUTHEAST IOWA

CITY           SKY/WX    TMP DP  RH WIND       PRES   REMARKS
BURLINGTON     PTCLDY    71  62  73 S14       29.88S
FAIRFIELD *    CLOUDY    63  59  88 SE9       29.86F
FORT MADISON * PTCLDY    72  63  73 S8        29.89F
KEOKUK *       PTCLDY    73  63  68 S10G22    29.88S
OSKALOOSA *    LGT RAIN  60  59  97 W9        29.87F
OTTUMWA        LGT RAIN  61  59  93 W10       29.86F
WASHINGTON *   HVY RAIN  63  61  94 W12G33    29.90R VSB 3/4
$$

ABBREVIATIONS USED IN REMARKS
   TC - TEMPERATURES IN CELSIUS
  WCI - WIND CHILL INDEX
   HX - HEAT INDEX
  VSB - VISIBILITY
$$




USA.gov is the U.S. government's official web portal to all federal, state and local government web resources and services.